Regional Weather Roundup
Issued by NWS

Home | Current Version | Previous Version | Graphics & Text | Print | Product List | Glossary On
Versions: 1 2 3 4 5 6 7 8 9 10 11 12 13 14 15 16 17 18 19 20 21 22 23 24 25 26 27 28 29 30 31 32 33 34 35 36 37 38 39 40 41 42 43 44 45 46 47 48 49 50
057
ASUS43 KMKX 240511
RWRWI

WISCONSIN REGIONAL WEATHER ROUNDUP
NATIONAL WEATHER SERVICE MILWAUKEE/SULLIVAN WI
1200 AM CDT SUN JUL 24 2016

NOTE: "FAIR" INDICATES FEW OR NO CLOUDS BELOW 12,000 FEET WITH NO
SIGNIFICANT WEATHER AND/OR OBSTRUCTIONS TO VISIBILITY.

WIZ001-002-006>008-014>016-023>028-240600-
NORTHWEST WISCONSIN

CITY           SKY/WX    TMP DP  RH WIND       PRES   REMARKS
SUPERIOR ARPT  CLOUDY    62  61  96 NE6       29.81S
ASHLAND        PTCLDY    71  68  90 S7        29.82S
HAYWARD        CLOUDY    70  67  90 S5        29.85R
SIREN          CLOUDY    72  68  88 SE7       29.81F
CUMBERLAND     CLOUDY    68  66  94 SE5       29.84S
RICE LAKE      CLOUDY    69  67  93 CALM      29.85S
CHETEK         CLOUDY    69  69  99 SE3       29.84S
LADYSMITH      MOCLDY    69  67  94 SE5       29.88R
EAU CLAIRE     CLOUDY    70  69  97 CALM      29.83R
MENOMONIE      CLOUDY    70  70  99 E6        29.83S
NEW RICHMOND   CLOUDY    71  70  97 SE6       29.81F
OSCEOLA        CLOUDY    71  71 100 SE6       29.82F
$$

WIZ003>005-009-010-017-018-240600-
NORTH CENTRAL WISCONSIN

CITY           SKY/WX    TMP DP  RH WIND       PRES   REMARKS
MANITOWISH WTR CLOUDY    68  68 100 S7        29.89R
ARBOR VITAE    CLOUDY    72  70  93 SE3       29.89S
WOODRUFF       CLOUDY    72  70  93 SE3       29.89S
RHINELANDER    CLOUDY    69  67  93 NW5       29.90F
EAGLE RIVER    LGT RAIN  67  67  99 CALM      29.90F
LAND O LAKES   RAIN      69  68  96 S8        29.91S
PHILLIPS       CLOUDY    68  67  99 CALM      29.88R
TOMAHAWK       CLOUDY    67  65  94 CALM      29.89S
MEDFORD        LGT RAIN  67  67 100 CALM      29.88R
MERRILL        CLOUDY    68  68 100 CALM      29.88S
$$

WIZ029-030-035-036-043>047-240600-
CENTRAL WISCONSIN

CITY           SKY/WX    TMP DP  RH WIND       PRES   REMARKS
WAUSAU         CLOUDY    70  68  93 S6        29.86S
MOSINEE        LGT RAIN  68  68 100 S6        29.89R
MARSHFIELD     TSTM      71  68  90 SE10      29.87R FOG
STEVENS POINT  HVY RAIN  69  67  93 S8        29.87S
WAUPACA        LGT RAIN  74  73  96 SE3       29.88S
WAUTOMA        CLOUDY    71  70  96 SE9       29.87F
WISC RAPIDS    MOCLDY    72  66  81 S6        29.87S THUNDER
CAMP DOUGLAS   CLEAR     71  70  97 SE7       29.84F
$$

WIZ011>013-019>022-031-037>040-048>050-240600-
NORTHEAST WISCONSIN

CITY           SKY/WX    TMP DP  RH WIND       PRES   REMARKS
ANTIGO         CLOUDY    69  68  97 S8        29.89F
SHAWANO        CLOUDY    74  69  84 CALM      29.88S
OCONTO         CLOUDY   N/A N/A N/A CALM      29.87S
STURGEON BAY   CLOUDY    72  70  93 SE5       29.90S
GREEN BAY      CLOUDY    75  74  96 S9        29.87F
MANITOWOC      CLOUDY    72  69  90 E5        29.89F
APPLETON       CLOUDY    73  70  88 S14       29.87S
CLINTONVILLE   CLOUDY    72  68  88 CALM      29.87S
OSHKOSH        MOCLDY    72  68  87 S14       29.86F
$$

WIZ032>034-041-042-053>061-240600-
SOUTHWEST WISCONSIN

CITY           SKY/WX    TMP DP  RH WIND       PRES   REMARKS
LA CROSSE      MOCLDY    75  69  81 S10       29.83R
SPARTA         CLOUDY    71  68  89 S3        29.85S
VIROQUA        PTCLDY    71  71 100 S12       29.87S
BOSCOBEL       PTCLDY    73  70  90 CALM      29.86S
PRAIRIE DU CHI CLOUDY    71  70  95 SE3       29.85F
PLATTEVILLE    MOCLDY    71  71 100 SE7       29.89S
$$

WIZ056-057-062-063-064-067-068-240600-
SOUTH CENTRAL WISCONSIN

CITY           SKY/WX    TMP DP  RH WIND       PRES   REMARKS
REEDSBURG      CLOUDY    71  71 100 S5        29.86F
BARABOO/DELLS  CLOUDY    70  68  93 S9        29.87S
LONE ROCK      CLOUDY    71  70  96 E3        29.87S
MINERAL POINT  CLOUDY    72  70  94 SE10      29.89S
MADISON        CLOUDY    72  70  93 S10       29.89S
MIDDLETON      CLOUDY    72  72  99 SE5       29.89F
WATERTOWN      TSTM      71  71 100 S8        29.91R
MONROE         CLOUDY    70  70 100 SE10      29.91S
JANESVILLE     CLOUDY    70  70 100 S13       29.93R
$$

WIZ051-052-058>065-066-070>072-240600-
SOUTHEAST WISCONSIN

CITY           SKY/WX    TMP DP  RH WIND       PRES   REMARKS
MILWAUKEE      LGT RAIN  73  69  87 S12       29.92F
WAUKESHA       CLOUDY    70  68  94 S8        29.94S
MILWAUKEE/TIMM DRIZZLE   70  66  88 S7        29.93F
RACINE         LGT RAIN  72  68  87 S12       29.96S
BURLINGTON     CLOUDY    70  69  96 S8G16     29.94S
KENOSHA        LGT RAIN  72  69  90 S10       29.96F
FOND DU LAC    RAIN      73  69  87 S9        29.90R FOG
SHEBOYGAN      CLOUDY    73  70  90 S12       29.90F
WEST BEND      LGT RAIN  70  68  94 S8        29.91F
JUNEAU         CLOUDY    70  69  96 SE10      29.92R
$$

LSZ147-162-240600-
LAKE SUPERIOR

STATION/POSITION TIME  TEMP    WIND        PRES    WAVE
                       AIR SEA DIR/SP/G            HT/PER
                 (UTC) (F)     (DEG/KT/KT) (MB)    (FT/S)
W MID LAKE BUOY  0450   60 57  130/  6/  8 1008.9F   1/ 4
DEVILS ISLAND    0400   64     210/  2/  3 1009.3F
PORT WING        0400   63      40/  4/  6 1009.8
SAXON HARBOR     0440   73     190/  3/  9 1009.5F
$$

LMZ867-665-643>646-240600-
LAKE MICHIGAN

STATION/POSITION TIME  TEMP    WIND        PRES    WAVE
                       AIR SEA DIR/SP/G            HT/PER
                 (UTC) (F)     (DEG/KT/KT) (MB)    (FT/S)
CHAMBERS ISLAND  0440   71     160/  2/  4 1012.5R
S GREEN BAY BUOY 0400   75 75  180/ 10/ 12   N/A
N MID LAKE BUOY  0450   73 70  150/ 10/ 10 1011.3F   0
NORTHPORT PIER   0400   74     150/  7/ 12 1011.9F
KEWAUNEE LAKESHO 0400   63     160/  5/  6 1012.0
SHEBOYGAN LAKESH 0500   69     190/ 23/ 26 1012.5F
PORT WASHINGTON  0400   67     190/  6/ 10 1013.9F
MILWAUKEE LAKESH 0410   70     180/ 14/ 16   N/A
S MID LAKE BUOY  0450   74 73  180/ 10/ 12 1013.3F   1/ 3
KENOSHA   LAKESH 0500   70     190/ 10/ 14 1013.9F
$$

TC  - TEMPERATURE IN CELSIUS
VSB - VISIBILITY IN STATUTE MILES
WCI - WIND CHILL INDEX
HX  - HEAT INDEX





USA.gov is the U.S. government's official web portal to all federal, state and local government web resources and services.